Weather History for Aiken, SC

Change the Weather History Date:

Saturday, March 30, 2013

  Actual Average Record
Temperature  
Mean Temperature 60 °F -  
Max Temperature 71 °F 72 °F 84 °F (2012)
Min Temperature 48 °F 48 °F 42 °F (2014)
Degree Days  
Heating Degree Days 6    
Growing Degree Days 10 (Base 50)    
Moisture  
Dew Point 44 °F    
Average Humidity 57    
Maximum Humidity 82    
Minimum Humidity 38    
Precipitation  
Precipitation 0.00 in - - ()
Sea Level Pressure  
Sea Level Pressure 30.17 in    
Wind  
Wind Speed 3 mph (SE)    
Max Wind Speed 9 mph    
Max Gust Speed 16 mph    
Visibility 10 miles    
Events Rain    
Averages and records for this station are not official NWS values.
T = Trace of Precipitation, MM = Missing Value Source: NWS Daily Summary

Daily Weather History Graph

Daily Weather History Graph

Search for Another Location

Airport:

Trip Planner

Search our weather history database for the weather conditions in past years. The results will help you decide how hot, cold, wet, or windy it might be!

Date:

Astronomy

Mar. 30, 2013 Rise Set
Actual Time 7:16 AM EDT 7:46 PM EDT
Civil Twilight 6:51 AM EDT 8:11 PM EDT
Nautical Twilight 6:22 AM EDT 8:40 PM EDT
Astronomical Twilight 5:52 AM EDT 9:10 PM EDT
Moon 11:39 PM EDT (3/30) 9:21 AM EDT (3/30)
Length of Visible Light 13h 19m
Length of Day
12h 29m
Waning Gibbous, 86% of the Moon is Illuminated
Mar 30
Waning Gibbous
Apr 3
Last Quarter
Apr 10
New
Apr 18
First Quarter
Apr 25
Full

Hourly Weather History & Observations

Time (EDT) Temp. Dew Point Humidity Pressure Visibility Wind Dir Wind Speed Gust Speed Precip Events Conditions
12:15 AM 55.4 °F 35.6 °F 47% 30.26 in 10.0 mi East 3.5 mph - N/A   Scattered Clouds
12:35 AM 53.6 °F 35.6 °F 51% 30.26 in 10.0 mi ESE 4.6 mph - N/A   Mostly Cloudy
12:55 AM 53.6 °F 35.6 °F 51% 30.26 in 10.0 mi East 4.6 mph - N/A   Scattered Clouds
1:15 AM 55.4 °F 33.8 °F 44% 30.25 in 10.0 mi ESE 4.6 mph - N/A   Clear
1:35 AM 53.6 °F 35.6 °F 51% 30.25 in 10.0 mi SE 8.1 mph - N/A   Mostly Cloudy
1:55 AM 53.6 °F 35.6 °F 51% 30.24 in 10.0 mi SE 5.8 mph - N/A   Overcast
2:15 AM 51.8 °F 37.4 °F 58% 30.24 in 10.0 mi SSE 3.5 mph - N/A   Overcast
2:35 AM 51.8 °F 39.2 °F 62% 30.24 in 10.0 mi SSE 3.5 mph - N/A   Overcast
2:55 AM 51.8 °F 41.0 °F 67% 30.24 in 10.0 mi Calm Calm - N/A   Overcast
3:15 AM 51.8 °F 41.0 °F 67% 30.23 in 10.0 mi ESE 3.5 mph - N/A   Overcast
3:35 AM 51.8 °F 41.0 °F 67% 30.23 in 10.0 mi Calm Calm - N/A   Overcast
3:55 AM 51.8 °F 41.0 °F 67% 30.23 in 10.0 mi SE 3.5 mph - N/A   Overcast
4:15 AM 51.8 °F 42.8 °F 71% 30.21 in 10.0 mi SE 3.5 mph - N/A   Overcast
4:35 AM 51.8 °F 42.8 °F 71% 30.19 in 10.0 mi East 4.6 mph - N/A   Overcast
4:55 AM 51.8 °F 42.8 °F 71% 30.18 in 10.0 mi ESE 4.6 mph - N/A   Overcast
5:15 AM 51.8 °F 42.8 °F 71% 30.18 in 10.0 mi ESE 3.5 mph - N/A   Overcast
5:35 AM 51.8 °F 42.8 °F 71% 30.19 in 10.0 mi East 3.5 mph - N/A   Overcast
5:55 AM 51.8 °F 42.8 °F 71% 30.18 in 10.0 mi SE 3.5 mph - N/A   Overcast
6:15 AM 50.0 °F 42.8 °F 76% 30.18 in 10.0 mi Calm Calm - N/A   Overcast
6:35 AM 50.0 °F 42.8 °F 76% 30.18 in 10.0 mi Calm Calm - N/A   Mostly Cloudy
7:15 AM 48.2 °F 42.8 °F 82% 30.20 in 10.0 mi North 3.5 mph - N/A   Overcast
7:35 AM 48.2 °F 42.8 °F 82% 30.20 in 10.0 mi Calm Calm - N/A   Overcast
7:55 AM 50.0 °F 44.6 °F 82% 30.21 in 10.0 mi Calm Calm - N/A   Overcast
8:15 AM 50.0 °F 44.6 °F 82% 30.21 in 10.0 mi Calm Calm - N/A   Overcast
8:35 AM 50.0 °F 44.6 °F 82% 30.23 in 10.0 mi NNE 3.5 mph - N/A   Scattered Clouds
9:15 AM 51.8 °F 44.6 °F 76% 30.22 in 10.0 mi Calm Calm - N/A   Mostly Cloudy
9:35 AM 53.6 °F 44.6 °F 72% 30.22 in 10.0 mi Calm Calm - N/A   Mostly Cloudy
9:55 AM 53.6 °F 44.6 °F 72% 30.22 in 10.0 mi Calm Calm - N/A   Mostly Cloudy
10:15 AM 55.4 °F 44.6 °F 67% 30.21 in 10.0 mi Calm Calm - N/A   Scattered Clouds
10:35 AM 57.2 °F 44.6 °F 63% 30.21 in 10.0 mi Calm Calm - N/A   Scattered Clouds
10:55 AM 59.0 °F 44.6 °F 59% 30.22 in 10.0 mi Calm Calm - N/A   Clear
11:15 AM 60.8 °F 44.6 °F 55% 30.21 in 10.0 mi Calm Calm - N/A   Clear
11:35 AM 62.6 °F 44.6 °F 52% 30.21 in 10.0 mi NNE 5.8 mph - N/A   Clear
11:55 AM 62.6 °F 42.8 °F 48% 30.21 in 10.0 mi North 3.5 mph - N/A   Scattered Clouds
12:15 PM 64.4 °F 42.8 °F 45% 30.20 in 10.0 mi NNW 5.8 mph - N/A   Scattered Clouds
12:35 PM 64.4 °F 42.8 °F 45% 30.19 in 10.0 mi North 6.9 mph - N/A   Scattered Clouds
12:55 PM 64.4 °F 44.6 °F 49% 30.19 in 10.0 mi Calm Calm - N/A   Scattered Clouds
1:15 PM 68.0 °F 44.6 °F 43% 30.18 in 10.0 mi SW 4.6 mph - N/A   Clear
1:35 PM 68.0 °F 44.6 °F 43% 30.17 in 10.0 mi WNW 5.8 mph - N/A   Clear
1:55 PM 68.0 °F 44.6 °F 43% 30.16 in 10.0 mi WNW 6.9 mph - N/A   Clear
2:15 PM 68.0 °F 44.6 °F 43% 30.16 in 10.0 mi South 3.5 mph - N/A   Scattered Clouds
2:35 PM 69.8 °F 44.6 °F 40% 30.15 in 10.0 mi WSW 8.1 mph - N/A   Mostly Cloudy
2:55 PM 71.6 °F 46.4 °F 41% 30.14 in 10.0 mi West 6.9 mph - N/A   Scattered Clouds
3:15 PM 69.8 °F 44.6 °F 40% 30.13 in 10.0 mi Calm Calm - N/A   Mostly Cloudy
3:35 PM 69.8 °F 44.6 °F 40% 30.13 in 10.0 mi WSW 5.8 mph - N/A   Mostly Cloudy
3:55 PM 71.6 °F 44.6 °F 38% 30.12 in 10.0 mi WNW 8.1 mph 16.1 mph N/A   Mostly Cloudy
4:15 PM 71.6 °F 44.6 °F 38% 30.12 in 10.0 mi WSW 6.9 mph - N/A   Scattered Clouds
4:35 PM 71.6 °F 44.6 °F 38% 30.11 in 10.0 mi WSW 9.2 mph - N/A   Scattered Clouds
4:55 PM 71.6 °F 44.6 °F 38% 30.10 in 10.0 mi SSW 6.9 mph - N/A   Scattered Clouds
5:15 PM 71.6 °F 44.6 °F 38% 30.10 in 10.0 mi SSW 9.2 mph - N/A   Mostly Cloudy
5:35 PM 71.6 °F 44.6 °F 38% 30.10 in 10.0 mi Calm Calm - N/A   Mostly Cloudy
5:55 PM 69.8 °F 44.6 °F 40% 30.09 in 10.0 mi West 4.6 mph - N/A   Scattered Clouds
6:15 PM 71.6 °F 44.6 °F 38% 30.09 in 10.0 mi NW 4.6 mph - N/A   Mostly Cloudy
6:35 PM 71.6 °F 44.6 °F 38% 30.09 in 10.0 mi Calm Calm - N/A   Overcast
6:55 PM 71.6 °F 44.6 °F 38% 30.09 in 10.0 mi Calm Calm - N/A   Mostly Cloudy
7:15 PM 71.6 °F 44.6 °F 38% 30.09 in 10.0 mi Calm Calm - N/A   Scattered Clouds
7:35 PM 68.0 °F 44.6 °F 43% 30.09 in 10.0 mi Calm Calm - N/A   Clear
7:55 PM 62.6 °F 46.4 °F 55% 30.09 in 10.0 mi East 3.5 mph - N/A   Clear
8:15 PM 62.6 °F 48.2 °F 59% 30.09 in 10.0 mi ENE 3.5 mph - N/A   Clear
8:35 PM 62.6 °F 46.4 °F 55% 30.10 in 10.0 mi Calm Calm - N/A   Scattered Clouds
8:55 PM 60.8 °F 50.0 °F 68% 30.10 in 10.0 mi Calm Calm - N/A   Mostly Cloudy
9:15 PM 59.0 °F 50.0 °F 72% 30.09 in 10.0 mi Calm Calm - N/A   Scattered Clouds
9:35 PM 62.6 °F 46.4 °F 55% 30.09 in 10.0 mi ESE 3.5 mph - N/A   Scattered Clouds
9:55 PM 60.8 °F 50.0 °F 68% 30.09 in 10.0 mi Calm Calm - N/A   Clear
10:15 PM 60.8 °F 48.2 °F 63% 30.09 in 10.0 mi Calm Calm - N/A   Clear
10:35 PM 60.8 °F 50.0 °F 68% 30.09 in 10.0 mi SE 4.6 mph - N/A   Scattered Clouds
11:15 PM 59.0 °F 50.0 °F 72% 30.10 in 10.0 mi Calm Calm - N/A Rain Light Rain
11:35 PM 59.0 °F 50.0 °F 72% 30.09 in 10.0 mi East 3.5 mph - N/A   Overcast
11:55 PM 60.8 °F 51.8 °F 72% 30.08 in 10.0 mi Calm Calm - N/A Rain Light Rain